Time,TemperatureF,DewpointF,PressureIn,WindDirection,WindDirectionDegrees,WindSpeedMPH,WindSpeedGustMPH,Humidity,HourlyPrecipIn,Conditions,Clouds,dailyrainin,SoftwareType,DateUTC
2013-09-09 00:00:00,64.9,61.3,30.10,NNE,22,0.0,0.0,88,0.00,CLR,,0.00,WeatherDisplay:10.37,2013-09-09 04:00:00,
2013-09-09 00:01:00,64.9,61.3,30.10,NNE,22,0.0,0.0,88,0.00,CLR,,0.00,WeatherDisplay:10.37,2013-09-09 04:01:00,
2013-09-09 00:02:00,64.9,61.3,30.10,NNE,22,0.0,0.0,88,0.00,CLR,,0.00,WeatherDisplay:10.37,2013-09-09 04:02:00,
2013-09-09 00:04:00,64.8,61.1,30.11,NNE,22,0.0,0.0,88,0.00,CLR,,0.00,WeatherDisplay:10.37,2013-09-09 04:04:00,
2013-09-09 00:09:00,64.8,61.1,30.11,NNE,22,0.0,0.0,88,0.00,CLR,,0.00,WeatherDisplay:10.37,2013-09-09 04:09:00,
2013-09-09 00:14:00,64.6,61.3,30.11,NNE,22,0.0,0.0,89,0.00,CLR,,0.00,WeatherDisplay:10.37,2013-09-09 04:14:00,
2013-09-09 00:19:00,64.6,61.3,30.11,NNE,22,0.0,0.0,89,0.00,CLR,,0.00,WeatherDisplay:10.37,2013-09-09 04:19:00,
2013-09-09 00:24:00,64.2,60.9,30.11,NNE,22,0.0,0.0,89,0.00,CLR,,0.00,WeatherDisplay:10.37,2013-09-09 04:24:00,
2013-09-09 00:29:00,64.2,60.9,30.11,NNE,22,0.0,0.0,89,0.00,CLR,,0.00,WeatherDisplay:10.37,2013-09-09 04:29:00,
2013-09-09 00:34:00,64.2,60.9,30.11,NNE,22,0.0,0.0,89,0.00,CLR,,0.00,WeatherDisplay:10.37,2013-09-09 04:34:00,
2013-09-09 00:39:00,64.2,60.9,30.11,NNE,22,0.0,0.0,89,0.00,CLR,,0.00,WeatherDisplay:10.37,2013-09-09 04:39:00,
2013-09-09 00:44:00,64.2,60.9,30.11,NNE,22,0.0,0.0,89,0.00,CLR,,0.00,WeatherDisplay:10.37,2013-09-09 04:44:00,
2013-09-09 00:49:00,64.0,60.7,30.11,NNE,22,0.0,0.0,89,0.00,CLR,,0.00,WeatherDisplay:10.37,2013-09-09 04:49:00,
2013-09-09 00:54:00,64.0,60.7,30.11,NNE,22,0.0,0.0,89,0.00,CLR,,0.00,WeatherDisplay:10.37,2013-09-09 04:54:00,
2013-09-09 00:59:00,63.7,60.4,30.11,NNE,22,0.0,0.0,89,0.00,CLR,,0.00,WeatherDisplay:10.37,2013-09-09 04:59:00,
2013-09-09 01:04:00,63.7,60.4,30.11,NNE,22,0.0,0.0,89,0.00,CLR,,0.00,WeatherDisplay:10.37,2013-09-09 05:04:00,
2013-09-09 01:09:00,63.7,60.4,30.11,NNE,22,0.0,0.0,89,0.00,CLR,,0.00,WeatherDisplay:10.37,2013-09-09 05:09:00,
2013-09-09 01:14:00,63.5,60.2,30.11,NNE,22,0.0,0.0,89,0.00,CLR,,0.00,WeatherDisplay:10.37,2013-09-09 05:14:00,
2013-09-09 01:19:00,63.5,60.2,30.11,NNE,22,0.0,0.0,89,0.00,CLR,,0.00,WeatherDisplay:10.37,2013-09-09 05:19:00,
2013-09-09 01:24:00,63.5,60.5,30.11,NNE,22,0.0,0.0,90,0.00,CLR,,0.00,WeatherDisplay:10.37,2013-09-09 05:24:00,
2013-09-09 01:29:00,63.5,60.5,30.11,NNE,22,0.0,0.0,90,0.00,CLR,,0.00,WeatherDisplay:10.37,2013-09-09 05:29:00,
2013-09-09 01:34:00,63.3,60.3,30.11,NNE,22,0.0,0.0,90,0.00,CLR,,0.00,WeatherDisplay:10.37,2013-09-09 05:34:00,
2013-09-09 01:39:00,63.1,60.2,30.11,NNE,22,0.0,0.0,90,0.00,CLR,,0.00,WeatherDisplay:10.37,2013-09-09 05:39:00,
2013-09-09 01:44:00,63.1,60.2,30.11,NNE,22,0.0,0.0,90,0.00,CLR,,0.00,WeatherDisplay:10.37,2013-09-09 05:44:00,
2013-09-09 01:49:00,63.1,60.2,30.11,NNE,22,0.0,0.0,90,0.00,CLR,,0.00,WeatherDisplay:10.37,2013-09-09 05:49:00,
2013-09-09 01:54:00,63.1,60.2,30.11,NNE,22,0.0,0.0,90,0.00,CLR,,0.00,WeatherDisplay:10.37,2013-09-09 05:54:00,
2013-09-09 01:59:00,63.0,60.0,30.11,NNE,22,0.0,0.0,90,0.00,CLR,,0.00,WeatherDisplay:10.37,2013-09-09 05:59:00,
2013-09-09 02:04:00,63.0,60.0,30.11,NNE,22,0.0,0.0,90,0.00,CLR,,0.00,WeatherDisplay:10.37,2013-09-09 06:04:00,
2013-09-09 02:09:00,63.0,60.0,30.11,NNE,22,0.0,0.0,90,0.00,CLR,,0.00,WeatherDisplay:10.37,2013-09-09 06:09:00,
2013-09-09 02:14:00,62.8,59.8,30.11,NNE,22,0.0,0.0,90,0.00,CLR,,0.00,WeatherDisplay:10.37,2013-09-09 06:14:00,
2013-09-09 02:19:00,62.8,59.8,30.11,NNE,22,0.0,0.0,90,0.00,CLR,,0.00,WeatherDisplay:10.37,2013-09-09 06:19:00,
2013-09-09 02:24:00,62.8,59.8,30.11,NNE,22,0.0,0.0,90,0.00,CLR,,0.00,WeatherDisplay:10.37,2013-09-09 06:24:00,
2013-09-09 02:29:00,62.4,59.4,30.11,NNE,22,0.0,0.0,90,0.00,CLR,,0.00,WeatherDisplay:10.37,2013-09-09 06:29:00,
2013-09-09 02:34:00,62.4,59.4,30.11,NNE,22,0.0,0.0,90,0.00,CLR,,0.00,WeatherDisplay:10.37,2013-09-09 06:34:00,
2013-09-09 02:39:00,62.4,59.4,30.11,NNE,22,0.0,0.0,90,0.00,CLR,,0.00,WeatherDisplay:10.37,2013-09-09 06:39:00,
2013-09-09 02:44:00,62.4,59.4,30.11,NNE,22,0.0,0.0,90,0.00,CLR,,0.00,WeatherDisplay:10.37,2013-09-09 06:44:00,
2013-09-09 02:49:00,62.4,59.8,30.11,NNE,22,0.0,0.0,91,0.00,CLR,,0.00,WeatherDisplay:10.37,2013-09-09 06:49:00,
2013-09-09 02:54:00,62.2,59.6,30.11,NNE,22,0.0,0.0,91,0.00,CLR,,0.00,WeatherDisplay:10.37,2013-09-09 06:54:00,
2013-09-09 02:59:00,62.2,59.6,30.11,NNE,22,0.0,0.0,91,0.00,CLR,,0.00,WeatherDisplay:10.37,2013-09-09 06:59:00,
2013-09-09 03:04:00,62.2,59.6,30.11,NNE,22,0.0,0.0,91,0.00,CLR,,0.00,WeatherDisplay:10.37,2013-09-09 07:04:00,
2013-09-09 03:09:00,62.1,59.4,30.11,NNE,22,0.0,0.0,91,0.00,CLR,,0.00,WeatherDisplay:10.37,2013-09-09 07:09:00,
2013-09-09 03:14:00,61.9,59.2,30.11,NNE,22,0.0,0.0,91,0.00,CLR,,0.00,WeatherDisplay:10.37,2013-09-09 07:14:00,
2013-09-09 03:19:00,61.9,59.2,30.11,NNE,22,0.0,0.0,91,0.00,CLR,,0.00,WeatherDisplay:10.37,2013-09-09 07:19:00,
2013-09-09 03:24:00,61.7,59.0,30.11,NNE,22,0.0,0.0,91,0.00,CLR,,0.00,WeatherDisplay:10.37,2013-09-09 07:24:00,
2013-09-09 03:29:00,61.7,59.0,30.11,NNE,22,0.0,0.0,91,0.00,CLR,,0.00,WeatherDisplay:10.37,2013-09-09 07:29:00,
2013-09-09 03:34:00,61.7,59.0,30.11,NNE,22,0.0,0.0,91,0.00,CLR,,0.00,WeatherDisplay:10.37,2013-09-09 07:34:00,
2013-09-09 03:39:00,61.5,58.9,30.11,NNE,22,0.0,0.0,91,0.00,CLR,,0.00,WeatherDisplay:10.37,2013-09-09 07:39:00,
2013-09-09 03:44:00,61.5,58.9,30.11,NNE,22,0.0,0.0,91,0.00,CLR,,0.00,WeatherDisplay:10.37,2013-09-09 07:44:00,
2013-09-09 03:49:00,61.5,58.9,30.11,NNE,22,0.0,0.0,91,0.00,CLR,,0.00,WeatherDisplay:10.37,2013-09-09 07:49:00,
2013-09-09 03:54:00,61.5,58.9,30.11,NNE,22,0.0,0.0,91,0.00,CLR,,0.00,WeatherDisplay:10.37,2013-09-09 07:54:00,
2013-09-09 03:59:00,61.5,58.9,30.11,NNE,22,0.0,0.0,91,0.00,CLR,,0.00,WeatherDisplay:10.37,2013-09-09 07:59:00,
2013-09-09 04:04:00,61.5,58.9,30.11,NNE,22,0.0,0.0,91,0.00,CLR,,0.00,WeatherDisplay:10.37,2013-09-09 08:04:00,
2013-09-09 04:09:00,61.5,58.9,30.11,NNE,22,0.0,0.0,91,0.00,CLR,,0.00,WeatherDisplay:10.37,2013-09-09 08:09:00,
2013-09-09 04:14:00,61.3,58.7,30.11,NNE,22,0.0,0.0,91,0.00,CLR,,0.00,WeatherDisplay:10.37,2013-09-09 08:14:00,
2013-09-09 04:19:00,61.3,58.7,30.11,NNE,22,0.0,0.0,91,0.00,CLR,,0.00,WeatherDisplay:10.37,2013-09-09 08:19:00,
2013-09-09 04:24:00,61.3,58.7,30.11,NNE,22,0.0,0.0,91,0.00,CLR,,0.00,WeatherDisplay:10.37,2013-09-09 08:24:00,
2013-09-09 04:29:00,61.3,58.7,30.11,NNE,22,0.0,0.0,91,0.00,CLR,,0.00,WeatherDisplay:10.37,2013-09-09 08:29:00,
2013-09-09 04:34:00,61.3,58.7,30.11,NNE,22,0.0,0.0,91,0.00,CLR,,0.00,WeatherDisplay:10.37,2013-09-09 08:34:00,
2013-09-09 04:39:00,61.3,58.7,30.11,NNE,22,0.0,0.0,91,0.00,CLR,,0.00,WeatherDisplay:10.37,2013-09-09 08:39:00,
2013-09-09 04:44:00,61.3,58.7,30.12,NNE,22,0.0,0.0,91,0.00,CLR,,0.00,WeatherDisplay:10.37,2013-09-09 08:44:00,
2013-09-09 04:49:00,61.2,58.5,30.12,NNE,22,0.0,0.0,91,0.00,CLR,,0.00,WeatherDisplay:10.37,2013-09-09 08:49:00,
2013-09-09 04:54:00,61.2,58.5,30.12,NNE,22,0.0,0.0,91,0.00,CLR,,0.00,WeatherDisplay:10.37,2013-09-09 08:54:00,
2013-09-09 04:59:00,61.2,58.5,30.13,NNE,22,0.0,0.0,91,0.00,CLR,,0.00,WeatherDisplay:10.37,2013-09-09 08:59:00,
2013-09-09 05:04:00,61.0,58.3,30.13,NNE,22,0.0,0.0,91,0.00,CLR,,0.00,WeatherDisplay:10.37,2013-09-09 09:04:00,
2013-09-09 05:09:00,61.0,58.3,30.13,NNE,22,0.0,0.0,91,0.00,CLR,,0.00,WeatherDisplay:10.37,2013-09-09 09:09:00,
2013-09-09 05:14:00,60.8,58.2,30.13,NNE,22,0.0,0.0,91,0.00,CLR,,0.00,WeatherDisplay:10.37,2013-09-09 09:14:00,
2013-09-09 05:19:00,60.6,58.0,30.13,NNE,22,0.0,0.0,91,0.00,CLR,,0.00,WeatherDisplay:10.37,2013-09-09 09:19:00,
2013-09-09 05:24:00,60.6,58.0,30.13,NNE,22,0.0,0.0,91,0.00,CLR,,0.00,WeatherDisplay:10.37,2013-09-09 09:24:00,
2013-09-09 05:29:00,60.6,58.0,30.13,NNE,22,0.0,0.0,91,0.00,CLR,,0.00,WeatherDisplay:10.37,2013-09-09 09:29:00,
2013-09-09 05:34:00,60.4,57.8,30.13,NNE,22,0.0,0.0,91,0.00,CLR,,0.00,WeatherDisplay:10.37,2013-09-09 09:34:00,
2013-09-09 05:39:00,60.4,57.8,30.13,NNE,22,0.0,0.0,91,0.00,CLR,,0.00,WeatherDisplay:10.37,2013-09-09 09:39:00,
2013-09-09 05:44:00,60.4,57.8,30.13,NNE,22,0.0,0.0,91,0.00,CLR,,0.00,WeatherDisplay:10.37,2013-09-09 09:44:00,
2013-09-09 05:49:00,60.4,57.8,30.13,NNE,22,0.0,0.0,91,0.00,CLR,,0.00,WeatherDisplay:10.37,2013-09-09 09:49:00,
2013-09-09 05:54:00,60.4,57.8,30.13,NNE,22,0.0,0.0,91,0.00,CLR,,0.00,WeatherDisplay:10.37,2013-09-09 09:54:00,
2013-09-09 05:59:00,60.3,57.6,30.13,NNE,22,0.0,0.0,91,0.00,CLR,,0.00,WeatherDisplay:10.37,2013-09-09 09:59:00,
2013-09-09 06:04:00,60.3,57.6,30.13,NNE,22,0.0,0.0,91,0.00,CLR,,0.00,WeatherDisplay:10.37,2013-09-09 10:04:00,
2013-09-09 06:09:00,60.3,57.6,30.13,NNE,22,0.0,0.0,91,0.00,CLR,,0.00,WeatherDisplay:10.37,2013-09-09 10:09:00,
2013-09-09 06:14:00,60.1,57.4,30.13,NNE,22,0.0,0.0,91,0.00,CLR,,0.00,WeatherDisplay:10.37,2013-09-09 10:14:00,
2013-09-09 06:19:00,60.1,57.4,30.13,NNE,22,0.0,0.0,91,0.00,CLR,,0.00,WeatherDisplay:10.37,2013-09-09 10:19:00,
2013-09-09 06:24:00,60.1,57.4,30.14,NNE,22,0.0,0.0,91,0.00,CLR,,0.00,WeatherDisplay:10.37,2013-09-09 10:24:00,
2013-09-09 06:29:00,60.1,57.4,30.14,NNE,22,0.0,0.0,91,0.00,CLR,,0.00,WeatherDisplay:10.37,2013-09-09 10:29:00,
2013-09-09 06:34:00,60.1,57.4,30.14,NNE,22,0.0,0.0,91,0.00,CLR,,0.00,WeatherDisplay:10.37,2013-09-09 10:34:00,
2013-09-09 06:39:00,59.9,57.3,30.14,NNE,22,0.0,0.0,91,0.00,CLR,,0.00,WeatherDisplay:10.37,2013-09-09 10:39:00,
2013-09-09 06:44:00,59.9,57.3,30.14,NNE,22,0.0,0.0,91,0.00,CLR,,0.00,WeatherDisplay:10.37,2013-09-09 10:44:00,
2013-09-09 06:49:00,59.9,57.3,30.14,NNE,22,0.0,0.0,91,0.00,CLR,,0.00,WeatherDisplay:10.37,2013-09-09 10:49:00,
2013-09-09 06:54:00,59.9,57.3,30.14,NNE,22,0.0,0.0,91,0.00,CLR,,0.00,WeatherDisplay:10.37,2013-09-09 10:54:00,
2013-09-09 06:59:00,59.9,57.3,30.14,NNE,22,0.0,0.0,91,0.00,CLR,,0.00,WeatherDisplay:10.37,2013-09-09 10:59:00,
2013-09-09 07:04:00,59.9,57.3,30.14,NNE,22,0.0,0.0,91,0.00,CLR,,0.00,WeatherDisplay:10.37,2013-09-09 11:04:00,
2013-09-09 07:09:00,59.7,57.1,30.14,NNE,22,0.0,0.0,91,0.00,CLR,,0.00,WeatherDisplay:10.37,2013-09-09 11:09:00,
2013-09-09 07:14:00,59.7,57.1,30.14,NNE,22,0.0,0.0,91,0.00,CLR,,0.00,WeatherDisplay:10.37,2013-09-09 11:14:00,
2013-09-09 07:19:00,59.7,57.1,30.15,NNE,22,0.0,0.0,91,0.00,CLR,,0.00,WeatherDisplay:10.37,2013-09-09 11:19:00,
2013-09-09 07:24:00,59.9,57.3,30.15,NNE,22,0.0,0.0,91,0.00,CLR,,0.00,WeatherDisplay:10.37,2013-09-09 11:24:00,
2013-09-09 07:29:00,59.9,57.3,30.15,NNE,22,0.0,0.0,91,0.00,CLR,,0.00,WeatherDisplay:10.37,2013-09-09 11:29:00,
2013-09-09 07:34:00,59.9,57.3,30.15,NNE,22,0.0,0.0,91,0.00,CLR,,0.00,WeatherDisplay:10.37,2013-09-09 11:34:00,
2013-09-09 07:39:00,60.1,57.4,30.15,NNE,22,0.0,0.0,91,0.00,CLR,,0.00,WeatherDisplay:10.37,2013-09-09 11:39:00,
2013-09-09 07:44:00,60.1,57.4,30.16,NNE,22,0.0,0.0,91,0.00,CLR,,0.00,WeatherDisplay:10.37,2013-09-09 11:44:00,
2013-09-09 07:49:00,60.1,57.4,30.16,NNE,22,0.0,0.0,91,0.00,CLR,,0.00,WeatherDisplay:10.37,2013-09-09 11:49:00,
2013-09-09 07:54:00,60.1,57.4,30.16,NNE,22,0.0,0.0,91,0.00,CLR,,0.00,WeatherDisplay:10.37,2013-09-09 11:54:00,
2013-09-09 07:59:00,60.3,57.6,30.16,NNE,22,0.0,0.0,91,0.00,CLR,,0.00,WeatherDisplay:10.37,2013-09-09 11:59:00,
2013-09-09 08:04:00,60.4,58.1,30.16,NNE,22,0.0,0.0,92,0.00,CLR,,0.00,WeatherDisplay:10.37,2013-09-09 12:04:00,
2013-09-09 08:09:00,60.6,58.3,30.16,NNE,22,0.0,0.0,92,0.00,CLR,,0.00,WeatherDisplay:10.37,2013-09-09 12:09:00,
2013-09-09 08:14:00,60.8,58.5,30.16,NNE,22,0.0,0.0,92,0.00,CLR,,0.00,WeatherDisplay:10.37,2013-09-09 12:14:00,
2013-09-09 08:19:00,61.0,58.6,30.16,NNE,22,0.0,0.0,92,0.00,CLR,,0.00,WeatherDisplay:10.37,2013-09-09 12:19:00,
2013-09-09 08:24:00,61.5,59.2,30.16,NNE,22,0.0,0.0,92,0.00,CLR,,0.00,WeatherDisplay:10.37,2013-09-09 12:24:00,
2013-09-09 08:29:00,61.7,59.4,30.16,NNE,22,0.0,0.0,92,0.00,CLR,,0.00,WeatherDisplay:10.37,2013-09-09 12:29:00,
2013-09-09 08:34:00,61.9,59.5,30.16,NNE,22,0.0,0.0,92,0.00,CLR,,0.00,WeatherDisplay:10.37,2013-09-09 12:34:00,
2013-09-09 08:39:00,62.4,60.1,30.16,NNE,22,0.0,0.0,92,0.00,CLR,,0.00,WeatherDisplay:10.37,2013-09-09 12:39:00,
2013-09-09 08:44:00,62.6,60.2,30.16,NNE,22,0.0,0.0,92,0.00,CLR,,0.00,WeatherDisplay:10.37,2013-09-09 12:44:00,
2013-09-09 08:49:00,63.0,60.6,30.16,NNE,22,0.0,0.0,92,0.00,CLR,,0.00,WeatherDisplay:10.37,2013-09-09 12:49:00,
2013-09-09 08:54:00,63.7,61.3,30.16,NNE,22,0.0,0.0,92,0.00,CLR,,0.00,WeatherDisplay:10.37,2013-09-09 12:54:00,
2013-09-09 08:59:00,64.0,61.7,30.16,NNE,22,0.0,0.0,92,0.00,CLR,,0.00,WeatherDisplay:10.37,2013-09-09 12:59:00,
2013-09-09 09:04:00,64.2,61.8,30.16,NNE,22,0.0,0.0,92,0.00,CLR,,0.00,WeatherDisplay:10.37,2013-09-09 13:04:00,
2013-09-09 09:09:00,65.3,62.9,30.16,NNE,22,0.0,0.0,92,0.00,CLR,,0.00,WeatherDisplay:10.37,2013-09-09 13:09:00,
2013-09-09 09:14:00,66.0,63.6,30.16,NNE,22,0.0,0.0,92,0.00,CLR,,0.00,WeatherDisplay:10.37,2013-09-09 13:14:00,
2013-09-09 09:19:00,67.3,64.9,30.16,NNE,22,0.0,0.0,92,0.00,CLR,,0.00,WeatherDisplay:10.37,2013-09-09 13:19:00,
2013-09-09 09:24:00,67.8,65.1,30.16,NNE,22,0.0,0.0,91,0.00,CLR,,0.00,WeatherDisplay:10.37,2013-09-09 13:24:00,
2013-09-09 09:29:00,68.7,65.7,30.16,NNE,22,0.0,0.0,90,0.00,CLR,,0.00,WeatherDisplay:10.37,2013-09-09 13:29:00,
2013-09-09 09:34:00,69.1,66.0,30.16,NNE,22,0.0,0.0,90,0.00,CLR,,0.00,WeatherDisplay:10.37,2013-09-09 13:34:00,
2013-09-09 09:39:00,70.0,66.6,30.16,NNE,22,0.0,0.0,89,0.00,CLR,,0.00,WeatherDisplay:10.37,2013-09-09 13:39:00,
2013-09-09 09:44:00,71.2,67.5,30.16,NNE,22,0.0,0.0,88,0.00,CLR,,0.00,WeatherDisplay:10.37,2013-09-09 13:44:00,
2013-09-09 09:49:00,72.7,68.2,30.16,NNE,22,0.0,0.0,86,0.00,CLR,,0.00,WeatherDisplay:10.37,2013-09-09 13:49:00,
2013-09-09 09:54:00,73.2,68.1,30.17,NNE,22,0.0,0.0,84,0.00,CLR,,0.00,WeatherDisplay:10.37,2013-09-09 13:54:00,
2013-09-09 09:59:00,73.2,67.4,30.17,NNE,22,0.0,0.0,82,0.00,CLR,,0.00,WeatherDisplay:10.37,2013-09-09 13:59:00,
2013-09-09 10:04:00,73.2,67.4,30.17,NNE,22,0.0,0.0,82,0.00,CLR,,0.00,WeatherDisplay:10.37,2013-09-09 14:04:00,
2013-09-09 10:09:00,73.2,67.4,30.17,NNE,22,0.0,0.0,82,0.00,CLR,,0.00,WeatherDisplay:10.37,2013-09-09 14:09:00,
2013-09-09 10:14:00,73.2,67.4,30.17,NNE,22,0.0,0.0,82,0.00,CLR,,0.00,WeatherDisplay:10.37,2013-09-09 14:14:00,
2013-09-09 10:19:00,73.9,68.1,30.17,NNE,22,0.0,0.0,82,0.00,CLR,,0.00,WeatherDisplay:10.37,2013-09-09 14:19:00,
2013-09-09 10:25:00,74.5,67.5,30.17,NNE,22,0.0,0.0,79,0.00,CLR,,0.00,WeatherDisplay:10.37,2013-09-09 14:25:00,
2013-09-09 10:30:00,74.7,67.3,30.17,NNE,22,0.0,0.0,78,0.00,CLR,,0.00,WeatherDisplay:10.37,2013-09-09 14:30:00,
2013-09-09 10:35:00,74.5,67.2,30.18,NNE,22,0.0,0.0,78,0.00,CLR,,0.00,WeatherDisplay:10.37,2013-09-09 14:35:00,
2013-09-09 10:40:00,74.1,66.8,30.18,NNE,22,0.0,0.0,78,0.00,CLR,,0.00,WeatherDisplay:10.37,2013-09-09 14:40:00,
2013-09-09 10:45:00,73.9,66.6,30.19,NNE,22,0.0,0.0,78,0.00,CLR,,0.00,WeatherDisplay:10.37,2013-09-09 14:45:00,
2013-09-09 10:50:00,73.8,66.5,30.19,NNE,22,0.0,0.0,78,0.00,CLR,,0.00,WeatherDisplay:10.37,2013-09-09 14:50:00,
2013-09-09 10:55:00,73.8,66.5,30.19,NNE,22,0.0,0.0,78,0.00,CLR,,0.00,WeatherDisplay:10.37,2013-09-09 14:55:00,
2013-09-09 11:00:00,73.9,66.6,30.19,NNE,22,0.0,0.0,78,0.00,CLR,,0.00,WeatherDisplay:10.37,2013-09-09 15:00:00,
2013-09-09 11:05:00,74.5,67.2,30.19,NNE,22,0.0,0.0,78,0.00,CLR,,0.00,WeatherDisplay:10.37,2013-09-09 15:05:00,
2013-09-09 11:10:00,74.5,66.8,30.19,NNE,22,0.0,0.0,77,0.00,CLR,,0.00,WeatherDisplay:10.37,2013-09-09 15:10:00,
2013-09-09 11:15:00,74.5,66.8,30.19,NNE,22,0.0,0.0,77,0.00,CLR,,0.00,WeatherDisplay:10.37,2013-09-09 15:15:00,
2013-09-09 11:20:00,74.8,67.1,30.19,NNE,22,0.0,0.0,77,0.00,CLR,,0.00,WeatherDisplay:10.37,2013-09-09 15:20:00,
2013-09-09 11:25:00,74.8,66.4,30.19,NNE,22,0.0,0.0,75,0.00,CLR,,0.00,WeatherDisplay:10.37,2013-09-09 15:25:00,
2013-09-09 11:30:00,74.5,66.4,30.19,NNE,22,0.0,0.0,76,0.00,CLR,,0.00,WeatherDisplay:10.37,2013-09-09 15:30:00,
2013-09-09 11:35:00,75.0,66.5,30.19,NNE,22,0.0,0.0,75,0.00,CLR,,0.00,WeatherDisplay:10.37,2013-09-09 15:35:00,
2013-09-09 11:40:00,75.0,66.6,30.19,NNE,22,0.0,0.0,75,0.00,CLR,,0.00,WeatherDisplay:10.37,2013-09-09 15:40:00,
2013-09-09 11:45:00,75.4,66.9,30.19,NNE,22,0.0,0.0,75,0.00,CLR,,0.00,WeatherDisplay:10.37,2013-09-09 15:45:00,
2013-09-09 11:50:00,75.6,67.1,30.19,NNE,22,0.0,0.0,75,0.00,CLR,,0.00,WeatherDisplay:10.37,2013-09-09 15:50:00,
2013-09-09 11:55:00,76.1,67.2,30.19,NNE,22,0.0,0.0,74,0.00,CLR,,0.00,WeatherDisplay:10.37,2013-09-09 15:55:00,
2013-09-09 12:00:00,76.5,67.6,30.19,NNE,22,0.0,0.0,74,0.00,CLR,,0.00,WeatherDisplay:10.37,2013-09-09 16:00:00,
2013-09-09 12:05:00,76.5,67.2,30.19,NNE,22,0.0,0.0,73,0.00,CLR,,0.00,WeatherDisplay:10.37,2013-09-09 16:05:00,
2013-09-09 12:10:00,76.6,67.3,30.19,NNE,22,0.0,0.0,73,0.00,CLR,,0.00,WeatherDisplay:10.37,2013-09-09 16:10:00,
2013-09-09 12:15:00,76.6,67.3,30.19,NNE,22,0.0,0.0,73,0.00,CLR,,0.00,WeatherDisplay:10.37,2013-09-09 16:15:00,
2013-09-09 12:20:00,76.8,67.5,30.19,NNE,22,0.0,0.0,73,0.00,CLR,,0.00,WeatherDisplay:10.37,2013-09-09 16:20:00,
2013-09-09 12:25:00,77.2,67.5,30.19,NNE,22,0.0,0.0,72,0.00,CLR,,0.00,WeatherDisplay:10.37,2013-09-09 16:25:00,
2013-09-09 12:30:00,77.5,67.8,30.19,NNE,22,0.0,0.0,72,0.00,CLR,,0.00,WeatherDisplay:10.37,2013-09-09 16:30:00,
2013-09-09 12:35:00,77.5,67.4,30.19,NNE,22,0.0,0.0,71,0.00,CLR,,0.00,WeatherDisplay:10.37,2013-09-09 16:35:00,
2013-09-09 12:40:00,77.5,67.4,30.18,NNE,22,0.0,0.0,71,0.00,CLR,,0.00,WeatherDisplay:10.37,2013-09-09 16:40:00,
2013-09-09 12:45:00,77.7,68.0,30.18,NNE,22,0.0,0.0,72,0.00,CLR,,0.00,WeatherDisplay:10.37,2013-09-09 16:45:00,
2013-09-09 12:50:00,78.5,68.3,30.18,NNE,22,0.0,0.0,71,0.00,CLR,,0.00,WeatherDisplay:10.37,2013-09-09 16:50:00,
2013-09-09 12:55:00,79.3,68.7,30.18,NNE,22,0.0,0.0,70,0.00,CLR,,0.00,WeatherDisplay:10.37,2013-09-09 16:55:00,
2013-09-09 13:00:00,80.1,69.0,30.18,NNE,22,0.0,0.0,69,0.00,CLR,,0.00,WeatherDisplay:10.37,2013-09-09 17:00:00,
2013-09-09 13:05:00,80.6,69.1,30.18,NNE,22,0.0,0.0,68,0.00,CLR,,0.00,WeatherDisplay:10.37,2013-09-09 17:05:00,
2013-09-09 13:10:00,80.8,69.2,30.18,NNE,22,0.0,0.0,68,0.00,CLR,,0.00,WeatherDisplay:10.37,2013-09-09 17:10:00,
2013-09-09 13:15:00,81.1,69.6,30.17,NNE,22,0.0,0.0,68,0.00,CLR,,0.00,WeatherDisplay:10.37,2013-09-09 17:15:00,
2013-09-09 13:20:00,82.2,69.3,30.17,NNE,22,0.0,0.0,65,0.00,CLR,,0.00,WeatherDisplay:10.37,2013-09-09 17:20:00,
2013-09-09 13:25:00,82.8,69.8,30.17,NNE,22,0.0,0.0,65,0.00,CLR,,0.00,WeatherDisplay:10.37,2013-09-09 17:25:00,
2013-09-09 13:30:00,82.8,70.2,30.17,NNE,22,0.0,0.0,66,0.00,CLR,,0.00,WeatherDisplay:10.37,2013-09-09 17:30:00,
2013-09-09 13:35:00,83.3,70.3,30.17,NNE,22,0.0,0.0,65,0.00,CLR,,0.00,WeatherDisplay:10.37,2013-09-09 17:35:00,
2013-09-09 13:40:00,84.0,70.1,30.16,NNE,22,0.0,0.0,63,0.00,CLR,,0.00,WeatherDisplay:10.37,2013-09-09 17:40:00,
2013-09-09 13:45:00,84.4,70.4,30.16,NNE,22,0.0,0.0,63,0.00,CLR,,0.00,WeatherDisplay:10.37,2013-09-09 17:45:00,
2013-09-09 13:50:00,84.6,70.1,30.16,NNE,22,0.0,0.0,62,0.00,CLR,,0.00,WeatherDisplay:10.37,2013-09-09 17:50:00,
2013-09-09 13:55:00,84.2,69.8,30.16,NNE,22,0.0,0.0,62,0.00,CLR,,0.00,WeatherDisplay:10.37,2013-09-09 17:55:00,
2013-09-09 14:00:00,84.2,69.8,30.16,NNE,22,0.0,0.0,62,0.00,CLR,,0.00,WeatherDisplay:10.37,2013-09-09 18:00:00,
2013-09-09 14:05:00,83.3,69.4,30.17,NNE,22,0.0,0.0,63,0.00,CLR,,0.00,WeatherDisplay:10.37,2013-09-09 18:05:00,
2013-09-09 14:10:00,83.3,69.4,30.16,NNE,22,0.0,0.0,63,0.00,CLR,,0.00,WeatherDisplay:10.37,2013-09-09 18:10:00,
2013-09-09 14:15:00,83.7,69.7,30.16,NNE,22,0.0,0.0,63,0.00,CLR,,0.00,WeatherDisplay:10.37,2013-09-09 18:15:00,
2013-09-09 14:20:00,84.4,69.5,30.16,NNE,22,0.0,0.0,61,0.00,CLR,,0.00,WeatherDisplay:10.37,2013-09-09 18:20:00,
2013-09-09 14:25:00,84.9,69.5,30.16,NNE,22,0.0,0.0,60,0.00,CLR,,0.00,WeatherDisplay:10.37,2013-09-09 18:25:00,
2013-09-09 14:30:00,84.7,68.8,30.16,NNE,22,0.0,0.0,59,0.00,CLR,,0.00,WeatherDisplay:10.37,2013-09-09 18:30:00,
2013-09-09 14:35:00,84.7,68.8,30.16,NNE,22,0.0,0.0,59,0.00,CLR,,0.00,WeatherDisplay:10.37,2013-09-09 18:35:00,
2013-09-09 14:40:00,84.7,69.3,30.16,NNE,22,0.0,0.0,60,0.00,CLR,,0.00,WeatherDisplay:10.37,2013-09-09 18:40:00,
2013-09-09 14:45:00,84.9,69.0,30.16,NNE,22,0.0,0.0,59,0.00,CLR,,0.00,WeatherDisplay:10.37,2013-09-09 18:45:00,
2013-09-09 14:50:00,84.7,69.3,30.16,NNE,22,0.0,0.0,60,0.00,CLR,,0.00,WeatherDisplay:10.37,2013-09-09 18:50:00,
2013-09-09 14:55:00,84.7,69.3,30.16,NNE,22,0.0,0.0,60,0.00,CLR,,0.00,WeatherDisplay:10.37,2013-09-09 18:55:00,
2013-09-09 15:00:00,84.7,69.3,30.16,NNE,22,0.0,0.0,60,0.00,CLR,,0.00,WeatherDisplay:10.37,2013-09-09 19:00:00,
2013-09-09 15:05:00,84.4,69.0,30.16,NNE,22,0.0,0.0,60,0.00,CLR,,0.00,WeatherDisplay:10.37,2013-09-09 19:05:00,
2013-09-09 15:10:00,84.0,68.6,30.16,NNE,22,0.0,0.0,60,0.00,CLR,,0.00,WeatherDisplay:10.37,2013-09-09 19:10:00,
2013-09-09 15:15:00,83.1,67.8,30.16,NNE,22,0.0,0.0,60,0.00,CLR,,0.00,WeatherDisplay:10.37,2013-09-09 19:15:00,
2013-09-09 15:20:00,82.9,68.1,30.15,NNE,22,0.0,0.0,61,0.00,CLR,,0.00,WeatherDisplay:10.37,2013-09-09 19:20:00,
2013-09-09 15:25:00,82.9,68.1,30.15,NNE,22,0.0,0.0,61,0.00,CLR,,0.00,WeatherDisplay:10.37,2013-09-09 19:25:00,
2013-09-09 15:30:00,82.9,68.1,30.15,NNE,22,0.0,0.0,61,0.00,CLR,,0.00,WeatherDisplay:10.37,2013-09-09 19:30:00,
2013-09-09 15:35:00,82.9,68.1,30.14,NNE,22,0.0,0.0,61,0.00,CLR,,0.00,WeatherDisplay:10.37,2013-09-09 19:35:00,
2013-09-09 15:40:00,83.3,68.4,30.14,NNE,22,0.0,0.0,61,0.00,CLR,,0.00,WeatherDisplay:10.37,2013-09-09 19:40:00,
2013-09-09 15:45:00,84.0,68.6,30.14,NNE,22,0.0,0.0,60,0.00,CLR,,0.00,WeatherDisplay:10.37,2013-09-09 19:45:00,
2013-09-09 15:50:00,84.0,68.6,30.14,NNE,22,0.0,0.0,60,0.00,CLR,,0.00,WeatherDisplay:10.37,2013-09-09 19:50:00,
2013-09-09 15:55:00,84.4,69.5,30.14,NNE,22,0.0,0.0,61,0.00,CLR,,0.00,WeatherDisplay:10.37,2013-09-09 19:55:00,
2013-09-09 16:00:00,84.7,69.3,30.14,NNE,22,0.0,0.0,60,0.00,CLR,,0.00,WeatherDisplay:10.37,2013-09-09 20:00:00,
2013-09-09 16:05:00,83.8,68.5,30.14,NNE,22,0.0,0.0,60,0.00,CLR,,0.00,WeatherDisplay:10.37,2013-09-09 20:05:00,
2013-09-09 16:10:00,83.3,68.9,30.14,NNE,22,0.0,0.0,62,0.00,CLR,,0.00,WeatherDisplay:10.37,2013-09-09 20:10:00,
2013-09-09 16:15:00,83.7,69.3,30.14,NNE,22,0.0,0.0,62,0.00,CLR,,0.00,WeatherDisplay:10.37,2013-09-09 20:15:00,
2013-09-09 16:20:00,83.8,69.4,30.14,NNE,22,0.0,0.0,62,0.00,CLR,,0.00,WeatherDisplay:10.37,2013-09-09 20:20:00,
2013-09-09 16:25:00,83.5,68.6,30.14,NNE,22,0.0,0.0,61,0.00,CLR,,0.00,WeatherDisplay:10.37,2013-09-09 20:25:00,
2013-09-09 16:30:00,83.5,69.1,30.14,NNE,22,0.0,0.0,62,0.00,CLR,,0.00,WeatherDisplay:10.37,2013-09-09 20:30:00,
2013-09-09 16:35:00,83.5,69.1,30.14,NNE,22,0.0,0.0,62,0.00,CLR,,0.00,WeatherDisplay:10.37,2013-09-09 20:35:00,
2013-09-09 16:40:00,83.8,69.4,30.14,NNE,22,0.0,0.0,62,0.00,CLR,,0.00,WeatherDisplay:10.37,2013-09-09 20:40:00,
2013-09-09 16:45:00,84.7,69.8,30.14,NNE,22,0.0,0.0,61,0.00,CLR,,0.00,WeatherDisplay:10.37,2013-09-09 20:45:00,
2013-09-09 16:50:00,84.9,70.0,30.14,NNE,22,0.0,0.0,61,0.00,CLR,,0.00,WeatherDisplay:10.37,2013-09-09 20:50:00,
2013-09-09 16:55:00,84.9,70.0,30.14,NNE,22,0.0,0.0,61,0.00,CLR,,0.00,WeatherDisplay:10.37,2013-09-09 20:55:00,
2013-09-09 17:00:00,85.8,70.3,30.14,NNE,22,0.0,0.0,60,0.00,CLR,,0.00,WeatherDisplay:10.37,2013-09-09 21:00:00,
2013-09-09 17:05:00,86.5,71.0,30.14,NNE,22,0.0,0.0,60,0.00,CLR,,0.00,WeatherDisplay:10.37,2013-09-09 21:05:00,
2013-09-09 17:10:00,86.5,70.5,30.14,NNE,22,0.0,0.0,59,0.00,CLR,,0.00,WeatherDisplay:10.37,2013-09-09 21:10:00,
2013-09-09 17:15:00,85.8,69.8,30.14,NNE,22,0.0,0.0,59,0.00,CLR,,0.00,WeatherDisplay:10.37,2013-09-09 21:15:00,
2013-09-09 17:20:00,85.6,69.7,30.14,NNE,22,0.0,0.0,59,0.00,CLR,,0.00,WeatherDisplay:10.37,2013-09-09 21:20:00,
2013-09-09 17:25:00,85.3,69.8,30.14,NNE,22,0.0,0.0,60,0.00,CLR,,0.00,WeatherDisplay:10.37,2013-09-09 21:25:00,
2013-09-09 17:30:00,84.7,69.3,30.14,NNE,22,0.0,0.0,60,0.00,CLR,,0.00,WeatherDisplay:10.37,2013-09-09 21:30:00,
2013-09-09 17:35:00,83.1,68.3,30.14,NNE,22,0.0,0.0,61,0.00,CLR,,0.00,WeatherDisplay:10.37,2013-09-09 21:35:00,
2013-09-09 17:40:00,82.2,67.9,30.14,NNE,22,0.0,0.0,62,0.00,CLR,,0.00,WeatherDisplay:10.37,2013-09-09 21:40:00,
2013-09-09 17:45:00,81.3,68.0,30.14,NNE,22,0.0,0.0,64,0.00,CLR,,0.00,WeatherDisplay:10.37,2013-09-09 21:45:00,
2013-09-09 17:50:00,81.3,68.4,30.14,NNE,22,0.0,0.0,65,0.00,CLR,,0.00,WeatherDisplay:10.37,2013-09-09 21:50:00,
2013-09-09 17:55:00,81.3,68.4,30.14,NNE,22,0.0,0.0,65,0.00,CLR,,0.00,WeatherDisplay:10.37,2013-09-09 21:55:00,
2013-09-09 18:00:00,81.3,68.9,30.14,NNE,22,0.0,0.0,66,0.00,CLR,,0.00,WeatherDisplay:10.37,2013-09-09 22:00:00,
2013-09-09 18:05:00,81.1,68.7,30.14,NNE,22,0.0,0.0,66,0.00,CLR,,0.00,WeatherDisplay:10.37,2013-09-09 22:05:00,
2013-09-09 18:10:00,80.8,68.4,30.14,NNE,22,0.0,0.0,66,0.00,CLR,,0.00,WeatherDisplay:10.37,2013-09-09 22:10:00,
2013-09-09 18:15:00,79.9,67.9,30.14,NNE,22,0.0,0.0,67,0.00,CLR,,0.00,WeatherDisplay:10.37,2013-09-09 22:15:00,
2013-09-09 18:20:00,79.5,67.6,30.14,NNE,22,0.0,0.0,67,0.00,CLR,,0.00,WeatherDisplay:10.37,2013-09-09 22:20:00,
2013-09-09 18:25:00,79.2,67.7,30.14,NNE,22,0.0,0.0,68,0.00,CLR,,0.00,WeatherDisplay:10.37,2013-09-09 22:25:00,
2013-09-09 18:30:00,78.4,67.4,30.14,NNE,22,0.0,0.0,69,0.00,CLR,,0.00,WeatherDisplay:10.37,2013-09-09 22:30:00,
2013-09-09 18:35:00,78.1,67.5,30.14,NNE,22,0.0,0.0,70,0.00,CLR,,0.00,WeatherDisplay:10.37,2013-09-09 22:35:00,
2013-09-09 18:40:00,78.1,67.5,30.13,NNE,22,0.0,0.0,70,0.00,CLR,,0.00,WeatherDisplay:10.37,2013-09-09 22:40:00,
2013-09-09 18:45:00,77.9,67.3,30.14,NNE,22,0.0,0.0,70,0.00,CLR,,0.00,WeatherDisplay:10.37,2013-09-09 22:45:00,
2013-09-09 18:50:00,77.7,67.2,30.13,NNE,22,0.0,0.0,70,0.00,CLR,,0.00,WeatherDisplay:10.37,2013-09-09 22:50:00,
2013-09-09 18:55:00,77.7,67.2,30.13,NNE,22,0.0,0.0,70,0.00,CLR,,0.00,WeatherDisplay:10.37,2013-09-09 22:55:00,
2013-09-09 19:00:00,77.2,67.0,30.13,NNE,22,0.0,0.0,71,0.00,CLR,,0.00,WeatherDisplay:10.37,2013-09-09 23:00:00,
2013-09-09 19:05:00,76.8,66.7,30.13,NNE,22,0.0,0.0,71,0.00,CLR,,0.00,WeatherDisplay:10.37,2013-09-09 23:05:00,
2013-09-09 19:10:00,76.3,66.6,30.13,NNE,22,0.0,0.0,72,0.00,CLR,,0.00,WeatherDisplay:10.37,2013-09-09 23:10:00,
2013-09-09 19:15:00,75.9,66.6,30.13,NNE,22,0.0,0.0,73,0.00,CLR,,0.00,WeatherDisplay:10.37,2013-09-09 23:15:00,
2013-09-09 19:20:00,75.7,66.5,30.13,NNE,22,0.0,0.0,73,0.00,CLR,,0.00,WeatherDisplay:10.37,2013-09-09 23:20:00,
2013-09-09 19:25:00,75.4,66.5,30.13,NNE,22,0.0,0.0,74,0.00,CLR,,0.00,WeatherDisplay:10.37,2013-09-09 23:25:00,
2013-09-09 19:30:00,75.0,66.6,30.13,NNE,22,0.0,0.0,75,0.00,CLR,,0.00,WeatherDisplay:10.37,2013-09-09 23:30:00,
2013-09-09 19:35:00,74.8,66.4,30.13,NNE,22,0.0,0.0,75,0.00,CLR,,0.00,WeatherDisplay:10.37,2013-09-09 23:35:00,
2013-09-09 19:40:00,74.5,66.0,30.13,NNE,22,0.0,0.0,75,0.00,CLR,,0.00,WeatherDisplay:10.37,2013-09-09 23:40:00,
2013-09-09 19:45:00,74.1,65.7,30.14,NNE,22,0.0,0.0,75,0.00,CLR,,0.00,WeatherDisplay:10.37,2013-09-09 23:45:00,
2013-09-09 19:50:00,73.9,65.9,30.14,NNE,22,0.0,0.0,76,0.00,CLR,,0.00,WeatherDisplay:10.37,2013-09-09 23:50:00,
2013-09-09 19:55:00,73.8,65.7,30.14,NNE,22,0.0,0.0,76,0.00,CLR,,0.00,WeatherDisplay:10.37,2013-09-09 23:55:00,
2013-09-09 20:00:00,73.4,65.7,30.14,NNE,22,0.0,0.0,77,0.00,CLR,,0.00,WeatherDisplay:10.37,2013-09-10 00:00:00,
2013-09-09 20:05:00,73.2,65.6,30.14,NNE,22,0.0,0.0,77,0.00,CLR,,0.00,WeatherDisplay:10.37,2013-09-10 00:05:00,
2013-09-09 20:10:00,73.2,65.6,30.14,NNE,22,0.0,0.0,77,0.00,CLR,,0.00,WeatherDisplay:10.37,2013-09-10 00:10:00,
2013-09-09 20:15:00,73.0,65.4,30.15,NNE,22,0.0,0.0,77,0.00,CLR,,0.00,WeatherDisplay:10.37,2013-09-10 00:15:00,
2013-09-09 20:20:00,72.9,65.6,30.15,NNE,22,0.0,0.0,78,0.00,CLR,,0.00,WeatherDisplay:10.37,2013-09-10 00:20:00,
2013-09-09 20:25:00,72.7,65.4,30.16,NNE,22,0.0,0.0,78,0.00,CLR,,0.00,WeatherDisplay:10.37,2013-09-10 00:25:00,
2013-09-09 20:30:00,72.5,65.2,30.15,NNE,22,0.0,0.0,78,0.00,CLR,,0.00,WeatherDisplay:10.37,2013-09-10 00:30:00,
2013-09-09 20:35:00,72.3,65.4,30.15,NNE,22,0.0,0.0,79,0.00,CLR,,0.00,WeatherDisplay:10.37,2013-09-10 00:35:00,
2013-09-09 20:40:00,72.3,65.4,30.16,NNE,22,0.0,0.0,79,0.00,CLR,,0.00,WeatherDisplay:10.37,2013-09-10 00:40:00,
2013-09-09 20:45:00,72.3,65.4,30.16,NNE,22,0.0,0.0,79,0.00,CLR,,0.00,WeatherDisplay:10.37,2013-09-10 00:45:00,
2013-09-09 20:50:00,72.1,65.3,30.16,NNE,22,0.0,0.0,79,0.00,CLR,,0.00,WeatherDisplay:10.37,2013-09-10 00:50:00,
2013-09-09 20:55:00,72.1,65.3,30.17,NNE,22,0.0,0.0,79,0.00,CLR,,0.00,WeatherDisplay:10.37,2013-09-10 00:55:00,
2013-09-09 21:00:00,72.1,65.3,30.17,NNE,22,0.0,0.0,79,0.00,CLR,,0.00,WeatherDisplay:10.37,2013-09-10 01:00:00,
2013-09-09 21:05:00,71.8,65.3,30.17,NNE,22,0.0,0.0,80,0.00,CLR,,0.00,WeatherDisplay:10.37,2013-09-10 01:05:00,
2013-09-09 21:10:00,71.4,64.9,30.17,NNE,22,0.0,0.0,80,0.00,CLR,,0.00,WeatherDisplay:10.37,2013-09-10 01:10:00,
2013-09-09 21:15:00,71.4,64.9,30.17,NNE,22,0.0,0.0,80,0.00,CLR,,0.00,WeatherDisplay:10.37,2013-09-10 01:15:00,
2013-09-09 21:20:00,71.4,64.9,30.17,NNE,22,0.0,0.0,80,0.00,CLR,,0.00,WeatherDisplay:10.37,2013-09-10 01:20:00,
2013-09-09 21:25:00,71.4,64.9,30.17,NNE,22,0.0,0.0,80,0.00,CLR,,0.00,WeatherDisplay:10.37,2013-09-10 01:25:00,
2013-09-09 21:30:00,71.4,64.9,30.17,NNE,22,0.0,0.0,80,0.00,CLR,,0.00,WeatherDisplay:10.37,2013-09-10 01:30:00,
2013-09-09 21:35:00,71.2,64.8,30.18,NNE,22,0.0,0.0,80,0.00,CLR,,0.00,WeatherDisplay:10.37,2013-09-10 01:35:00,
2013-09-09 21:40:00,71.2,65.1,30.18,NNE,22,0.0,0.0,81,0.00,CLR,,0.00,WeatherDisplay:10.37,2013-09-10 01:40:00,
2013-09-09 21:45:00,70.9,64.8,30.18,NNE,22,0.0,0.0,81,0.00,CLR,,0.00,WeatherDisplay:10.37,2013-09-10 01:45:00,
2013-09-09 21:50:00,70.7,64.6,30.18,NNE,22,0.0,0.0,81,0.00,CLR,,0.00,WeatherDisplay:10.37,2013-09-10 01:50:00,
2013-09-09 21:55:00,70.5,64.8,30.18,NNE,22,0.0,0.0,82,0.00,CLR,,0.00,WeatherDisplay:10.37,2013-09-10 01:55:00,
2013-09-09 22:00:00,70.3,64.6,30.17,NNE,22,0.0,0.0,82,0.00,CLR,,0.00,WeatherDisplay:10.37,2013-09-10 02:00:00,
2013-09-09 22:05:00,70.3,64.6,30.18,NNE,22,0.0,0.0,82,0.00,CLR,,0.00,WeatherDisplay:10.37,2013-09-10 02:05:00,
2013-09-09 22:10:00,70.0,64.2,30.18,NNE,22,0.0,0.0,82,0.00,CLR,,0.00,WeatherDisplay:10.37,2013-09-10 02:10:00,
2013-09-09 22:15:00,70.0,64.6,30.17,NNE,22,0.0,0.0,83,0.00,CLR,,0.00,WeatherDisplay:10.37,2013-09-10 02:15:00,
2013-09-09 22:21:00,69.8,64.4,30.18,NNE,22,0.0,0.0,83,0.00,CLR,,0.00,WeatherDisplay:10.37,2013-09-10 02:21:00,
2013-09-09 22:26:00,69.8,64.4,30.18,NNE,22,0.0,0.0,83,0.00,CLR,,0.00,WeatherDisplay:10.37,2013-09-10 02:26:00,
2013-09-09 22:31:00,69.8,64.4,30.18,NNE,22,0.0,0.0,83,0.00,CLR,,0.00,WeatherDisplay:10.37,2013-09-10 02:31:00,
2013-09-09 22:36:00,70.0,64.6,30.18,NNE,22,0.0,0.0,83,0.00,CLR,,0.00,WeatherDisplay:10.37,2013-09-10 02:36:00,
2013-09-09 22:41:00,70.0,64.6,30.18,NNE,22,0.0,0.0,83,0.00,CLR,,0.00,WeatherDisplay:10.37,2013-09-10 02:41:00,
2013-09-09 22:46:00,70.0,64.6,30.19,NNE,22,0.0,0.0,83,0.00,CLR,,0.00,WeatherDisplay:10.37,2013-09-10 02:46:00,
2013-09-09 22:51:00,70.0,64.2,30.19,NNE,22,0.0,0.0,82,0.00,CLR,,0.00,WeatherDisplay:10.37,2013-09-10 02:51:00,
2013-09-09 22:56:00,70.0,64.2,30.19,NNE,22,0.0,0.0,82,0.00,CLR,,0.00,WeatherDisplay:10.37,2013-09-10 02:56:00,
2013-09-09 23:01:00,69.8,64.1,30.19,NNE,22,0.0,0.0,82,0.00,CLR,,0.00,WeatherDisplay:10.37,2013-09-10 03:01:00,
2013-09-09 23:06:00,69.8,64.1,30.19,NNE,22,0.0,0.0,82,0.00,CLR,,0.00,WeatherDisplay:10.37,2013-09-10 03:06:00,
2013-09-09 23:11:00,69.6,63.9,30.19,NNE,22,0.0,0.0,82,0.00,CLR,,0.00,WeatherDisplay:10.37,2013-09-10 03:11:00,
2013-09-09 23:16:00,69.4,64.0,30.19,NNE,22,0.0,0.0,83,0.00,CLR,,0.00,WeatherDisplay:10.37,2013-09-10 03:16:00,
2013-09-09 23:21:00,69.4,64.0,30.19,NNE,22,0.0,0.0,83,0.00,CLR,,0.00,WeatherDisplay:10.37,2013-09-10 03:21:00,
2013-09-09 23:26:00,69.3,63.9,30.19,NNE,22,0.0,0.0,83,0.00,CLR,,0.00,WeatherDisplay:10.37,2013-09-10 03:26:00,
2013-09-09 23:31:00,69.3,63.9,30.19,NNE,22,0.0,0.0,83,0.00,CLR,,0.00,WeatherDisplay:10.37,2013-09-10 03:31:00,
2013-09-09 23:36:00,69.1,63.7,30.19,NNE,22,0.0,0.0,83,0.00,CLR,,0.00,WeatherDisplay:10.37,2013-09-10 03:36:00,
2013-09-09 23:41:00,69.1,63.7,30.19,NNE,22,0.0,0.0,83,0.00,CLR,,0.00,WeatherDisplay:10.37,2013-09-10 03:41:00,
2013-09-09 23:46:00,69.1,63.7,30.19,NNE,22,0.0,0.0,83,0.00,CLR,,0.00,WeatherDisplay:10.37,2013-09-10 03:46:00,
2013-09-09 23:51:00,69.1,63.7,30.19,NNE,22,0.0,0.0,83,0.00,CLR,,0.00,WeatherDisplay:10.37,2013-09-10 03:51:00,
2013-09-09 23:56:00,69.1,63.7,30.19,NNE,22,0.0,0.0,83,0.00,CLR,,0.00,WeatherDisplay:10.37,2013-09-10 03:56:00,